[[{"header":{"parameterUnit":"m.s-1","parameterCategory":1,"la1":30.2991,"la2":30.254,"lo1":-89.0895,"lo2":-89.0444,"dy":0.0017,"dx":0.0017,"nx":28,"ny":28,"refTime":"2024-08-24T21:00:00:Z","depth":0,"parameterNumber":2,"parameterNumberName":"U-component_of_WINDS"},"data":[0,0,0,0,0,0,0,0,0,0,0,0,0,0,0,0,0,0,0,0,0,0,0,0,0,0,0,0,0,0,0,0,0,0,0,0,0,0,0,0,0,0,0,0,0,0,0,0,0,0,0,0,0,0,0,0,0,0,-3.4766,-3.4766,0,-3.4737,-3.4736,-3.4736,-3.4568,-3.4564,-3.456,-3.4556,-3.4528,-3.4531,-3.4534,0,0,0,0,0,0,0,0,0,0,0,0,0,-3.4679,-3.4682,-3.4766,-3.4766,-3.4766,-3.4737,-3.4736,-3.4736,-3.4569,-3.4564,-3.4559,-3.4554,-3.4527,-3.4531,-3.4534,0,0,0,0,0,0,0,0,0,0,0,0,0,-3.4691,-3.4683,-3.4766,-3.4679,-3.467,-3.4737,-3.4736,-3.4736,-3.457,-3.4563,-3.4557,-3.4552,-3.4526,-3.453,-3.4535,-3.4684,0,0,-3.4549,-3.4551,0,0,0,0,0,0,0,0,-3.469,-3.4694,-3.4692,-3.4685,-3.4676,-3.465,-3.4695,-3.4719,-3.4571,-3.4608,-3.4556,-3.4549,-3.4574,-3.4574,-3.4582,-3.4683,-3.4682,-3.4549,-3.4552,-3.4554,-3.4555,0,0,0,0,0,0,0,-3.469,-3.4694,-3.4754,-3.4692,-3.4682,-3.4641,-3.4636,-3.4699,-3.4625,-3.4604,-3.4592,-3.4591,-3.4568,-3.4578,-3.458,-3.4681,-3.4549,-3.4553,-3.4556,-3.4558,-3.4902,-3.4908,0,0,0,0,0,0,-3.4701,-3.4695,-3.4755,-3.4754,-3.4668,-3.4648,-3.4642,-3.4664,-3.4624,-3.4612,-3.4596,-3.4583,-3.4573,-3.4575,-3.4578,-3.4749,-3.4554,-3.4558,-3.4561,-3.4896,-3.4903,-3.491,0,0,0,0,0,0,-3.47,-3.4708,-3.4757,-3.4721,-3.4724,-3.4655,-3.4682,-3.4667,-3.4676,-3.4618,-3.4604,-3.4619,-3.4568,-3.4572,-3.4658,-3.4745,-3.456,-3.4564,-3.4888,-3.4898,-3.4907,-3.5093,0,0,0,0,0,0,-3.4698,-3.4708,-3.4764,-3.4723,-3.4726,-3.4838,-3.4687,-3.4671,-3.4684,-3.4667,-3.4636,-3.4625,-3.4564,-3.4653,-3.4663,-3.4748,-3.4568,-3.488,-3.4892,-3.4904,-3.5078,-3.5107,-3.5132,0,0,0,0,0,-3.4695,-3.4819,-3.4768,-3.4776,-3.4795,-3.4843,-3.4845,-3.4771,-3.4692,-3.4747,-3.471,-3.4626,-3.4735,-3.4663,-3.4673,-3.4761,-3.4874,-3.4889,-3.4903,-3.5066,-3.5102,-3.5132,0,0,0,0,0,0,-3.4873,-3.4812,-3.4755,-3.4868,-3.4862,-3.4814,-3.4882,-3.4811,-3.4828,-3.4811,-3.472,-3.4714,-3.4815,-3.4797,-3.4718,-3.4903,-3.479,-3.4807,-3.4911,-3.4944,-3.497,-3.4972,-3.4572,0,0,0,0,0,-3.4925,-3.4969,-3.4913,-3.5019,-3.5019,-3.4952,-3.497,-3.4914,-3.4904,-3.49,-3.4869,-3.4863,-3.4895,-3.4919,-3.4946,-3.5075,-3.5066,-3.5141,-3.5168,-3.519,-3.5206,-3.5272,-3.5304,-3.4958,-3.4958,-3.4957,0,0,-3.5034,-3.5006,-3.5039,-3.5054,-3.5042,-3.509,-3.495,-3.5007,-3.5041,-3.4909,-3.4988,-3.4965,-3.4953,-3.5061,-3.5108,-3.5049,-3.53,-3.5209,-3.5227,-3.523,-3.529,-3.5323,-3.5352,-3.4967,-3.4966,-3.4964,0,0,-3.5255,-3.5239,-3.5324,-3.5315,-3.5299,-3.5253,-3.5274,-3.5237,-3.5216,-3.5294,-3.5196,-3.5236,-3.5294,-3.5288,-3.5294,-3.5513,-3.5436,-3.5524,-3.5665,-3.573,-3.5757,-3.5781,-3.5858,-3.5886,-3.554,-3.5541,-3.5541,0,-3.5393,-3.5459,-3.5378,-3.544,-3.5449,-3.5331,-3.5416,-3.5411,-3.5406,-3.5415,-3.535,-3.5419,-3.5403,-3.5508,-3.5561,-3.557,-3.559,-3.5527,-3.576,-3.5783,-3.5804,-3.5876,-3.5905,-3.5552,-3.555,-3.5549,-3.5548,0,-3.5628,-3.5676,-3.5747,-3.5742,-3.5759,-3.5833,-3.5763,-3.5791,-3.5733,-3.5695,-3.5775,-3.5751,-3.577,-3.5791,-3.5737,-3.5889,-3.5853,-3.5776,-3.566,-3.5849,-3.5915,-3.5942,-3.5567,-3.5563,-3.556,-3.5557,0,0,-3.596,-3.5908,-3.5936,-3.5931,-3.5905,-3.594,-3.6009,-3.6026,-3.6051,-3.6051,-3.6106,-3.6158,-3.6086,-3.6092,-3.6035,-3.6093,-3.6266,-3.6008,-3.6006,-3.6055,-3.6431,-3.6488,-3.6521,-3.6216,-3.6221,-3.6225,-3.6431,0,-3.6171,-3.6283,-3.6211,-3.6335,-3.6378,-3.6266,-3.6326,-3.6316,-3.6282,-3.6314,-3.6276,-3.6314,-3.6217,-3.6219,-3.6271,-3.6234,-3.634,-3.6218,-3.6265,-3.6268,-3.627,-3.6556,-3.6617,-3.6813,-3.6457,-3.6461,-3.6464,0,-3.6431,-3.6441,-3.6569,-3.6532,-3.6547,-3.6602,-3.6611,-3.6643,-3.663,-3.6601,-3.6608,-3.6536,-3.6601,-3.6489,-3.6576,-3.6495,-3.6511,-3.6496,-3.6501,-3.6501,-3.6377,-3.6563,-3.6874,-3.6903,-3.6505,-3.6501,-3.6498,0,-3.6659,-3.6704,-3.6785,-3.6786,-3.6745,-3.6786,-3.6771,-3.6752,-3.6767,-3.6776,-3.6784,-3.6802,-3.6811,-3.6827,-3.6762,-3.6686,-3.6859,-3.6741,-3.6836,-3.6838,-3.6876,-3.6874,-3.7192,-3.689,-3.6889,-3.6888,-3.6888,0,-3.69,-3.6983,-3.6886,-3.6937,-3.7026,-3.6943,-3.7033,-3.7007,-3.6991,-3.7034,-3.694,-3.6983,-3.6895,-3.693,-3.688,-3.696,-3.6966,-3.6944,-3.6929,-3.6951,-3.6954,-3.6959,-3.6943,-3.6896,-3.6894,-3.6893,-3.6892,0,-3.7168,-3.7108,-3.7189,-3.7144,-3.7134,-3.7202,-3.7163,-3.7207,-3.7167,-3.7223,-3.7232,-3.7169,-3.7204,-3.7142,-3.717,-3.7137,-3.7247,-3.7213,-3.7252,-3.7241,-3.7339,-3.733,-3.767,-3.771,-3.7384,-3.7387,-3.7389,0,-3.7326,-3.7386,-3.7347,-3.7368,-3.7358,-3.7395,-3.7408,-3.733,-3.7348,-3.7337,-3.7384,-3.7411,-3.7428,-3.7491,-3.7448,-3.7469,-3.7433,-3.7551,-3.7436,-3.7455,-3.7433,-3.7429,-3.7434,-3.7574,-3.7578,-3.7581,-3.7584,0,-3.7611,-3.7577,-3.76,-3.7613,-3.7632,-3.7639,-3.7639,-3.7663,-3.7579,-3.7605,-3.7639,-3.7653,-3.7681,-3.7709,-3.772,-3.7705,-3.7631,-3.7621,-3.7643,-3.7666,-3.7685,-3.7674,-3.7314,-3.7613,-3.761,-3.7608,-3.7606,-3.7605,-3.7827,-3.7874,-3.7853,-3.7882,-3.7874,-3.7876,-3.7915,-3.7879,-3.7906,-3.7921,-3.7873,-3.7919,-3.7903,-3.791,-3.7903,-3.7938,-3.7886,-3.7919,-3.7927,-3.7937,-3.7951,-3.7681,-3.794,-3.7939,-3.7938,-3.7937,-3.7937,0,-3.8105,-3.8086,-3.8113,-3.8115,-3.8138,-3.8065,-3.8061,-3.8086,-3.8126,-3.8117,-3.8136,-3.8175,-3.8202,-3.8162,-3.8182,-3.8217,-3.8184,-3.8225,-3.8221,-3.8219,-3.7998,-3.7975,-3.8252,-3.8252,-3.8252,-3.8252,-3.8252,-3.8252,-3.8252,-3.8328,-3.8293,-3.8364,-3.8344,-3.8386,-3.839,-3.8392,-3.8384,-3.8431,-3.8452,-3.8426,-3.8404,-3.8422,-3.8443,-3.8431,-3.8442,-3.8495,-3.8471,-3.8265,-3.8234,-3.8205,-3.8183,-3.8499,-3.8499,-3.8688,-3.869,-3.8691]},{"header":{"parameterUnit":"m.s-1","parameterCategory":1,"la1":30.2991,"la2":30.254,"lo1":-89.0895,"lo2":-89.0444,"dy":0.0017,"dx":0.0017,"nx":28,"ny":28,"refTime":"2024-08-24T21:00:00:Z","depth":0,"parameterNumber":3,"parameterNumberName":"V-component_of_WINDS"},"data":[0,0,0,0,0,0,0,0,0,0,0,0,0,0,0,0,0,0,0,0,0,0,0,0,0,0,0,0,0,0,0,0,0,0,0,0,0,0,0,0,0,0,0,0,0,0,0,0,0,0,0,0,0,0,0,0,0,0,-1.834,-1.834,0,-1.8363,-1.8363,-1.8364,-1.8383,-1.8383,-1.8384,-1.8384,-1.8406,-1.8406,-1.8407,0,0,0,0,0,0,0,0,0,0,0,0,0,-1.831,-1.831,-1.834,-1.834,-1.834,-1.8363,-1.8363,-1.8364,-1.8383,-1.8383,-1.8384,-1.8384,-1.8406,-1.8406,-1.8407,0,0,0,0,0,0,0,0,0,0,0,0,0,-1.8327,-1.831,-1.834,-1.8353,-1.8354,-1.8363,-1.8363,-1.8364,-1.8383,-1.8383,-1.8384,-1.8384,-1.8406,-1.8406,-1.8407,-1.8404,0,0,-1.8408,-1.8409,0,0,0,0,0,0,0,0,-1.8326,-1.8328,-1.8351,-1.8352,-1.8354,-1.8371,-1.8361,-1.8377,-1.8383,-1.8372,-1.8384,-1.8384,-1.8394,-1.8395,-1.8399,-1.8405,-1.8406,-1.8408,-1.8409,-1.8409,-1.8409,0,0,0,0,0,0,0,-1.8324,-1.8327,-1.8349,-1.8351,-1.8353,-1.8357,-1.8359,-1.8364,-1.8381,-1.8373,-1.8374,-1.8377,-1.8395,-1.8398,-1.8399,-1.8406,-1.8408,-1.8409,-1.8409,-1.8409,-1.8409,-1.8408,0,0,0,0,0,0,-1.8322,-1.8326,-1.8348,-1.835,-1.834,-1.8357,-1.836,-1.8365,-1.8381,-1.8383,-1.8377,-1.8378,-1.8397,-1.8399,-1.84,-1.8397,-1.8409,-1.841,-1.841,-1.8409,-1.8409,-1.8408,0,0,0,0,0,0,-1.8321,-1.8323,-1.8347,-1.8338,-1.8341,-1.8357,-1.8362,-1.8365,-1.8369,-1.8384,-1.8386,-1.8378,-1.8397,-1.84,-1.8402,-1.8398,-1.841,-1.841,-1.8409,-1.8409,-1.8408,-1.839,0,0,0,0,0,0,-1.832,-1.8323,-1.8323,-1.8338,-1.8342,-1.835,-1.8362,-1.8365,-1.837,-1.8372,-1.8385,-1.8388,-1.8398,-1.8401,-1.8403,-1.8399,-1.8411,-1.841,-1.8409,-1.8409,-1.8391,-1.8389,-1.8387,0,0,0,0,0,-1.8319,-1.8317,-1.8323,-1.8325,-1.8342,-1.8349,-1.8351,-1.8364,-1.8369,-1.8369,-1.8378,-1.8387,-1.8398,-1.8402,-1.8403,-1.8399,-1.841,-1.8409,-1.8409,-1.8392,-1.8389,-1.8387,0,0,0,0,0,0,-1.83,-1.8319,-1.8326,-1.8329,-1.8337,-1.8353,-1.8352,-1.8361,-1.8368,-1.8369,-1.8383,-1.8386,-1.8387,-1.8394,-1.8397,-1.8396,-1.8405,-1.8405,-1.8392,-1.839,-1.8388,-1.8386,-1.8411,0,0,0,0,0,-1.8296,-1.8302,-1.8317,-1.8318,-1.8322,-1.8336,-1.834,-1.8349,-1.8358,-1.8362,-1.8371,-1.8379,-1.8384,-1.8388,-1.8393,-1.8392,-1.8395,-1.839,-1.8388,-1.8387,-1.8386,-1.8384,-1.8382,-1.8406,-1.8406,-1.8406,0,0,-1.8289,-1.83,-1.8302,-1.8315,-1.8323,-1.8327,-1.8339,-1.8344,-1.8346,-1.8362,-1.8365,-1.8372,-1.8382,-1.8383,-1.8384,-1.8388,-1.838,-1.8386,-1.8384,-1.8384,-1.8383,-1.8381,-1.8379,-1.8405,-1.8405,-1.8405,0,0,-1.8276,-1.8286,-1.8287,-1.8294,-1.8306,-1.8315,-1.8315,-1.8329,-1.8334,-1.8338,-1.835,-1.8353,-1.8362,-1.8368,-1.8372,-1.8361,-1.8369,-1.8362,-1.8351,-1.835,-1.8348,-1.8346,-1.8341,-1.8339,-1.8362,-1.8361,-1.8361,0,-1.8265,-1.8273,-1.8286,-1.8289,-1.8294,-1.8309,-1.8309,-1.8316,-1.8328,-1.8331,-1.8336,-1.8347,-1.8354,-1.8356,-1.8353,-1.8356,-1.8356,-1.8361,-1.8347,-1.8346,-1.8344,-1.8339,-1.8337,-1.8361,-1.8361,-1.8361,-1.8361,0,-1.8257,-1.8262,-1.8262,-1.8273,-1.8278,-1.828,-1.8293,-1.8296,-1.8304,-1.8312,-1.8314,-1.8324,-1.8331,-1.8332,-1.834,-1.8335,-1.8337,-1.8345,-1.8354,-1.8341,-1.8336,-1.8335,-1.8359,-1.8359,-1.836,-1.836,0,0,-1.8235,-1.8253,-1.8253,-1.8257,-1.8271,-1.8274,-1.8276,-1.8283,-1.8285,-1.8293,-1.8294,-1.8301,-1.8307,-1.8312,-1.8321,-1.8319,-1.8308,-1.8327,-1.8327,-1.8322,-1.83,-1.8294,-1.8291,-1.8314,-1.8313,-1.8313,-1.8299,0,-1.8224,-1.8228,-1.824,-1.8241,-1.8244,-1.8258,-1.8259,-1.8267,-1.8274,-1.8278,-1.8286,-1.829,-1.8299,-1.8302,-1.8301,-1.8309,-1.8304,-1.8311,-1.8313,-1.8313,-1.8309,-1.8289,-1.8283,-1.8269,-1.8298,-1.8297,-1.8297,0,-1.8212,-1.8219,-1.8219,-1.8231,-1.8233,-1.8234,-1.8241,-1.8245,-1.8253,-1.8258,-1.8263,-1.8273,-1.8274,-1.8283,-1.8284,-1.8289,-1.8291,-1.8295,-1.8294,-1.8294,-1.8304,-1.8287,-1.8265,-1.8262,-1.8295,-1.8295,-1.8295,0,-1.8193,-1.8203,-1.8204,-1.8208,-1.8222,-1.8222,-1.8228,-1.8237,-1.824,-1.8246,-1.8248,-1.8254,-1.8256,-1.826,-1.827,-1.8276,-1.827,-1.828,-1.8273,-1.8273,-1.8271,-1.8271,-1.8247,-1.8274,-1.8274,-1.8274,-1.8274,0,-1.818,-1.8179,-1.8196,-1.8197,-1.8196,-1.8209,-1.8208,-1.8215,-1.8222,-1.8224,-1.8236,-1.8237,-1.8251,-1.8253,-1.8261,-1.826,-1.8262,-1.8265,-1.8267,-1.8263,-1.8263,-1.8264,-1.8265,-1.8273,-1.8273,-1.8274,-1.8274,0,-1.8159,-1.817,-1.8172,-1.8185,-1.8188,-1.8187,-1.8198,-1.8198,-1.8206,-1.8208,-1.8209,-1.8221,-1.8224,-1.8235,-1.8241,-1.8246,-1.8242,-1.8246,-1.8239,-1.824,-1.8232,-1.8232,-1.8208,-1.8204,-1.8234,-1.8234,-1.8234,0,-1.8149,-1.8149,-1.8161,-1.8163,-1.8168,-1.8172,-1.8175,-1.8187,-1.819,-1.8198,-1.8198,-1.8202,-1.8205,-1.8209,-1.8218,-1.8222,-1.8226,-1.8217,-1.8227,-1.8223,-1.8224,-1.8224,-1.8223,-1.8215,-1.8215,-1.8214,-1.8214,0,-1.8129,-1.8135,-1.8139,-1.8145,-1.8148,-1.8153,-1.8159,-1.816,-1.8173,-1.8175,-1.8179,-1.8181,-1.8187,-1.819,-1.8195,-1.8201,-1.8209,-1.8211,-1.8209,-1.8205,-1.82,-1.8201,-1.8232,-1.8211,-1.8212,-1.8212,-1.8212,-1.8212,-1.8113,-1.8113,-1.8121,-1.8125,-1.8131,-1.8135,-1.8136,-1.8144,-1.8147,-1.8152,-1.8159,-1.8161,-1.8168,-1.8176,-1.818,-1.8181,-1.8186,-1.8184,-1.8184,-1.8182,-1.818,-1.8201,-1.8183,-1.8183,-1.8183,-1.8183,-1.8183,0,-1.8093,-1.8099,-1.8102,-1.8109,-1.8112,-1.812,-1.8127,-1.8128,-1.813,-1.8136,-1.8139,-1.8142,-1.8145,-1.8153,-1.8157,-1.8156,-1.816,-1.8156,-1.8156,-1.8156,-1.8176,-1.8177,-1.8153,-1.8153,-1.8153,-1.8153,-1.8153,-1.8153,-1.8083,-1.8083,-1.8089,-1.8091,-1.8096,-1.8098,-1.8101,-1.8105,-1.8109,-1.8112,-1.8115,-1.812,-1.8127,-1.8131,-1.8133,-1.8136,-1.8136,-1.8131,-1.8134,-1.8152,-1.8155,-1.8158,-1.8158,-1.8131,-1.8131,-1.8114,-1.8114,-1.8114]}]]